| time (UTC) | temp F | wind direction | speed MPH | gust MPH | rain 1hr in | rain 24hr in | rain mn in | humidity % | barometer mb |
| 20260503174550 | 52 | 287 | 10.0 | 17.0 | 0.00 | 0.00 | 0.00 | 49 | 1013.4 |
| 20260503173054 | 52 | 281 | 10.0 | 17.0 | 0.00 | 0.00 | 0.00 | 52 | 1013.4 |
| 20260503171541 | 53 | 292 | 12.0 | 21.0 | 0.00 | 0.00 | 0.00 | 49 | 1013.5 |
| 20260503081502 | 37 | 279 | 2.0 | 6.0 | 0.00 | 0.00 | 0.00 | 13 | 1015.7 |
| 20260503080106 | 37 | 265 | 3.0 | 7.0 | 0.00 | 0.00 | 0.00 | 19 | 1015.6 |
| 20260503071557 | 39 | 271 | 5.0 | 9.0 | 0.00 | 0.00 | 0.00 | 32 | 1015.6 |
| 20260503070108 | 39 | 284 | 5.0 | 9.0 | 0.00 | 0.00 | 0.00 | 34 | 1015.6 |
| 20260503054541 | 39 | 275 | 3.0 | 9.0 | 0.00 | 0.00 | 0.00 | 39 | 1015.7 |
| 20260503053034 | 39 | 287 | 4.0 | 10.0 | 0.00 | 0.00 | 0.00 | 39 | 1015.9 |
| 20260503051534 | 39 | 257 | 6.0 | 11.0 | 0.00 | 0.00 | 0.00 | 40 | 1016.1 |
| 20260503050029 | 40 | 277 | 3.0 | 9.0 | 0.00 | 0.00 | 0.00 | 40 | 1016.1 |
| 20260503044535 | 40 | 279 | 4.0 | 9.0 | 0.00 | 0.00 | 0.00 | 42 | 1016.3 |
| 20260503043024 | 40 | 271 | 4.0 | 6.0 | 0.00 | 0.00 | 0.00 | 43 | 1016.4 |
| 20260503041524 | 40 | 249 | 4.0 | 10.0 | 0.00 | 0.00 | 0.00 | 44 | 1016.4 |
| 20260503040027 | 40 | 279 | 5.0 | 9.0 | 0.00 | 0.00 | 0.00 | 45 | 1016.5 |
| 20260503034520 | 40 | 263 | 3.0 | 9.0 | 0.00 | 0.00 | 0.00 | 45 | 1016.5 |
| 20260503033019 | 40 | 278 | 6.0 | 10.0 | 0.00 | 0.00 | 0.00 | 45 | 1016.5 |
| 20260503031519 | 40 | 283 | 4.0 | 8.0 | 0.00 | 0.00 | 0.00 | 45 | 1016.5 |
| 20260503030017 | 40 | 236 | 3.0 | 8.0 | 0.00 | 0.00 | 0.00 | 44 | 1016.6 |
| 20260503024516 | 40 | 278 | 3.0 | 9.0 | 0.00 | 0.00 | 0.00 | 44 | 1016.7 |
| 20260503023011 | 40 | 279 | 4.0 | 10.0 | 0.00 | 0.00 | 0.00 | 44 | 1016.7 |
| 20260503021507 | 40 | 284 | 4.0 | 9.0 | 0.00 | 0.00 | 0.00 | 44 | 1016.8 |
| 20260503020003 | 40 | 278 | 5.0 | 9.0 | 0.00 | 0.00 | 0.00 | 46 | 1016.8 |
| 20260503014558 | 40 | 284 | 4.0 | 8.0 | 0.00 | 0.00 | 0.00 | 46 | 1016.8 |
| 20260503013058 | 41 | 281 | 2.0 | 10.0 | 0.00 | 0.00 | 0.00 | 46 | 1016.8 |
| 20260503011604 | 41 | 276 | 4.0 | 10.0 | 0.00 | 0.00 | 0.00 | 46 | 1016.8 |
| 20260503010114 | 41 | 250 | 5.0 | 12.0 | 0.00 | 0.00 | 0.00 | 46 | 1016.7 |
| 20260503004540 | 41 | 306 | 4.0 | 10.0 | 0.00 | 0.01 | 0.00 | 47 | 1016.6 |
| 20260503003034 | 41 | 280 | 4.0 | 9.0 | 0.00 | 0.01 | 0.00 | 49 | 1016.5 |
| 20260503001530 | 41 | 322 | 5.0 | 10.0 | 0.00 | 0.01 | 0.00 | 50 | 1016.4 |
| 20260503000026 | 41 | 273 | 4.0 | 9.0 | 0.00 | 0.01 | 0.00 | 49 | 1016.4 |
| 20260502234521 | 41 | 333 | 5.0 | 11.0 | 0.00 | 0.03 | 0.00 | 48 | 1016.3 |
| 20260502233019 | 41 | 319 | 2.0 | 4.0 | 0.00 | 0.03 | 0.00 | 43 | 1016.1 |
| 20260502231515 | 41 | 327 | 1.0 | 4.0 | 0.00 | 0.03 | 0.00 | 45 | 1016.1 |
| 20260502230010 | 41 | 355 | 2.0 | 5.0 | 0.00 | 0.03 | 0.00 | 47 | 1016.1 |
| 20260502224504 | 41 | 333 | 2.0 | 8.0 | 0.00 | 0.04 | 0.00 | 48 | 1016.1 |
| 20260502223059 | 41 | 13 | 4.0 | 12.0 | 0.00 | 0.04 | 0.00 | 51 | 1016.1 |
| 20260502221554 | 42 | 300 | 9.0 | 13.0 | 0.00 | 0.04 | 0.00 | 54 | 1016.0 |
| 20260502220051 | 43 | 312 | 7.0 | 11.0 | 0.00 | 0.04 | 0.00 | 57 | 1015.9 |
| 20260502214600 | 43 | 253 | 7.0 | 11.0 | 0.00 | 0.06 | 0.00 | 58 | 1015.8 |
| 20260502213041 | 43 | 305 | 3.0 | 10.0 | 0.00 | 0.06 | 0.00 | 51 | 1015.7 |
| 20260502211536 | 44 | 323 | 7.0 | 14.0 | 0.00 | 0.06 | 0.00 | 59 | 1015.6 |
| 20260502210041 | 44 | 340 | 9.0 | 15.0 | 0.00 | 0.06 | 0.00 | 60 | 1015.6 |
| 20260502204527 | 44 | 297 | 9.0 | 14.0 | 0.00 | 0.07 | 0.00 | 59 | 1015.5 |
| 20260502203023 | 44 | 319 | 6.0 | 11.0 | 0.00 | 0.07 | 0.00 | 51 | 1015.6 |
| 20260502201522 | 44 | 360 | 4.0 | 8.0 | 0.00 | 0.07 | 0.00 | 53 | 1015.5 |
| 20260502200014 | 44 | 341 | 5.0 | 10.0 | 0.00 | 0.07 | 0.00 | 58 | 1015.6 |
| 20260502194511 | 45 | 338 | 6.0 | 12.0 | 0.00 | 0.07 | 0.00 | 57 | 1015.5 |
| 20260502193004 | 45 | 314 | 4.0 | 12.0 | 0.00 | 0.07 | 0.00 | 56 | 1015.7 |
| 20260502191600 | 45 | 264 | 8.0 | 15.0 | 0.00 | 0.07 | 0.00 | 54 | 1015.8 |
| 20260502190056 | 46 | 323 | 9.0 | 14.0 | 0.00 | 0.07 | 0.00 | 57 | 1015.6 |
| 20260502184551 | 46 | 275 | 7.0 | 18.0 | 0.00 | 0.07 | 0.00 | 56 | 1015.7 |
| 20260502183048 | 46 | 284 | 8.0 | 15.0 | 0.00 | 0.07 | 0.00 | 56 | 1015.7 |
| 20260502181541 | 46 | 331 | 8.0 | 13.0 | 0.00 | 0.07 | 0.00 | 56 | 1015.7 |